Regional Weather Roundup
Issued by NWS Goodland, KS

Home | Current Version | Previous Version | Graphics & Text | Print | Product List | Glossary On
Versions: 1 2 3 4 5 6 7 8 9 10 11 12 13 14 15 16 17 18 19 20 21 22 23 24 25 26 27 28 29 30 31 32 33 34 35 36 37 38 39 40 41 42 43 44 45 46 47 48 49 50
264
ASUS43 KGLD 060808
RWRGLD

GOODLAND FORECAST AREA HOURLY WEATHER ROUNDUP
NATIONAL WEATHER SERVICE GOODLAND KS
200 AM MDT FRI MAY 06 2016

...OFFICIAL OBSERVATIONS...

CITY           SKY/WX    TMP DP  RH WIND       PRES   REMARKS
GOODLAND KS    CLOUDY    52  46  80 S12       30.03F
HILL CITY KS   CLEAR     57  46  66 SW3       30.04F
IMPERIAL NEB   PTCLDY    56  47  71 S9        30.01F
MCCOOK NEB     CLOUDY    56  46  69 S8        30.01F
AKRON CO       CLOUDY    56  43  61 S14       30.01F
BURLINGTON CO  CLOUDY    57  45  64 SE18      30.03F
LIMON CO       CLOUDY    46  42  86 SE6       30.05F
$$

...UNOFFICIAL OBSERVATIONS...

CITY           SKY/WX    TMP DP  RH WIND       PRES   REMARKS
COLBY KS       CLEAR     57  48  72 S13G21    30.04F
LENORA KS        N/A     56  32  40 MISG        N/A
NORTON KS      CLEAR     55  43  62 S6        30.02F
SHARON SPRINGS   N/A     55  47  76 SE12G18     N/A
TRIBUNE KS     CLOUDY    54  48  82 SE9       30.06F
KIT CARSON CO    N/A     57  45  65 MISG        N/A
YUMA CO          N/A     55  46  73 S7          N/A
$$




USA.gov is the U.S. government's official web portal to all federal, state and local government web resources and services.